The Dalles, WA

12:58 PM PDT on April 27, 2017 (GMT -0700)
Columbia Gorge Regional-The Dalles

Weather History for KDLS - May, 2013

Change the Weather History Date:

Monday, May 27, 2013

  Actual Average Record
Temperature  
Mean Temperature 57 °F -  
Max Temperature 64 °F 74 °F 95 °F (1952)
Min Temperature 50 °F 50 °F 39 °F (1973)
Degree Days  
Heating Degree Days 8    
Growing Degree Days 7 (Base 50)    
Moisture  
Dew Point 50 °F    
Average Humidity 83    
Maximum Humidity 90    
Minimum Humidity 70    
Precipitation  
Precipitation 0.48 in - - ()
Sea Level Pressure  
Sea Level Pressure 29.85 in    
Wind  
Wind Speed 5 mph (NE)    
Max Wind Speed 14 mph    
Max Gust Speed -    
Visibility 9 miles    
Events Rain    
Averages and records for this station are not official NWS values.
T = Trace of Precipitation, MM = Missing Value Source: NWS Daily Summary

Daily Weather History Graph

Daily Weather History Graph

Search for Another Location

Airport or City:

Trip Planner

Search our weather history database for the weather conditions in past years. The results will help you decide how hot, cold, wet, or windy it might be!

Date:

Astronomy

May. 27, 2013 Rise Set
Actual Time 5:21 AM PDT 8:42 PM PDT
Civil Twilight 4:45 AM PDT 9:18 PM PDT
Nautical Twilight 3:58 AM PDT 10:06 PM PDT
Astronomical Twilight 2:58 AM PDT 11:07 PM PDT
Moon 11:21 PM PDT 8:07 AM PDT
Length of Visible Light 16h 33m
Length of Day
15h 20m
Waning Gibbous, 90% of the Moon is Illuminated
May 27
Waning Gibbous
May 31
Last Quarter
Jun 8
New
Jun 16
First Quarter
Jun 23
Full

Hourly Weather History & Observations

Time (PDT) Temp. Dew Point Humidity Pressure Visibility Wind Dir Wind Speed Gust Speed Precip Events Conditions
12:53 AM 52.0 °F 45.0 °F 77% 29.97 in 10.0 mi WSW 8.1 mph - N/A   Clear
1:53 AM 52.0 °F 44.1 °F 74% 29.97 in 10.0 mi Calm Calm - N/A   Clear
2:53 AM 50.0 °F 44.1 °F 80% 29.96 in 10.0 mi Calm Calm - N/A   Clear
3:53 AM 50.0 °F 44.1 °F 80% 29.94 in 10.0 mi East 4.6 mph - N/A   Clear
4:53 AM 50.0 °F 45.0 °F 83% 29.93 in 10.0 mi East 3.5 mph - N/A   Clear
5:53 AM 51.1 °F 45.0 °F 80% 29.92 in 10.0 mi Calm Calm - N/A   Overcast
6:53 AM 51.1 °F 46.0 °F 83% 29.91 in 10.0 mi Calm Calm - 0.00 in Rain Light Rain
7:53 AM 51.1 °F 46.9 °F 86% 29.90 in 9.0 mi Calm Calm - 0.03 in Rain Light Rain
8:53 AM 52.0 °F 48.0 °F 86% 29.89 in 10.0 mi Calm Calm - 0.03 in Rain Light Rain
9:53 AM 53.1 °F 50.0 °F 89% 29.88 in 10.0 mi East 5.8 mph - 0.02 in Rain Light Rain
10:53 AM 54.0 °F 50.0 °F 86% 29.86 in 8.0 mi ENE 9.2 mph - 0.04 in Rain Light Rain
11:53 AM 55.0 °F 51.1 °F 86% 29.84 in 10.0 mi ENE 10.4 mph - 0.04 in Rain Light Rain
12:53 PM 55.0 °F 51.1 °F 86% 29.83 in 10.0 mi ENE 10.4 mph - 0.04 in Rain Light Rain
1:53 PM 55.9 °F 53.1 °F 90% 29.81 in 10.0 mi ENE 9.2 mph - 0.07 in Rain Light Rain
2:53 PM 57.9 °F 54.0 °F 87% 29.80 in 10.0 mi ENE 8.1 mph - 0.00 in Rain Light Rain
3:53 PM 60.1 °F 55.0 °F 83% 29.79 in 10.0 mi NE 9.2 mph - 0.01 in   Overcast
4:53 PM 64.0 °F 54.0 °F 70% 29.76 in 10.0 mi ENE 13.8 mph - N/A   Partly Cloudy
5:51 PM 59.0 °F 53.6 °F 82% 29.76 in 1.8 mi North 8.1 mph - 0.08 in Rain Heavy Rain
5:53 PM 59.0 °F 54.0 °F 83% 29.77 in 1.5 mi North 6.9 mph - 0.11 in Rain Heavy Rain
6:06 PM 60.8 °F 55.4 °F 82% 29.76 in 3.0 mi NNW 4.6 mph - 0.04 in Rain Light Rain
6:53 PM 57.9 °F 54.0 °F 87% 29.76 in 7.0 mi NW 10.4 mph - 0.05 in Rain Light Rain
7:53 PM 57.9 °F 55.0 °F 90% 29.78 in 10.0 mi Calm Calm - 0.03 in Rain Light Rain
8:53 PM 57.0 °F 53.1 °F 87% 29.78 in 10.0 mi Calm Calm - 0.01 in   Mostly Cloudy
9:53 PM 57.0 °F 54.0 °F 89% 29.79 in 10.0 mi Calm Calm - N/A   Mostly Cloudy
10:53 PM 57.0 °F 53.1 °F 87% 29.81 in 10.0 mi NNW 4.6 mph - N/A   Overcast
11:53 PM 55.9 °F 48.9 °F 77% 29.81 in 10.0 mi West 8.1 mph - N/A   Partly Cloudy